Location: Владивосток
(43.1151°N, 131.8856°E)
Time: 23:02:28
(UTC+10:00)

First-Move - Pass Details

Date: 06 July 2022
Orbit: 572 x 658 km, 97.6° (Epoch: 14 August)

Event Time Altitude Azimuth Distance (km) Brightness Sun altitude
Rises 04:22:24 0° 26° (NNE) 2,971 ? -11.6°
Reaches altitude 10° 04:25:00 10° 40° (NE) 2,066 ? -11.3°
Maximum altitude 04:28:37 23° 94° (E) 1,380 ? -10.8°
Drops below altitude 10° 04:32:15 10° 147° (SSE) 2,068 ? -10.3°
Sets 04:34:51 0° 162° (SSE) 2,975 ? -10.0°
